O3B FM8

Last updated on Fri Dec 29 2023 00:03:04 GMT+0000 (Coordinated Universal Time)

1 40082U 14038D 23361.42657727 -.00000024 00000+0 00000+0 0 9990 2 40082 0.0553 7.3440 0002770 271.6297 80.9933 5.00115324172785
UTC large
Height (km)
Speed (km/s)
/
Latitude / Longitude
Inclination (degrees)
Orbital Period (minutes)
Azimuth
Elevation
Range (km)
Doppler Factor

Next 0 passes for location: London (51.5072 / 0.1276)

Sorry there are no passes over London.